Regional Weather Roundup
Issued by NWS Portland, ME

Current Version | Previous Version | Text Only | Print | Product List | Glossary Off
Versions: 1 2 3 4 5 6 7 8 9 10 11 12 13 14 15 16 17 18 19 20 21 22 23 24 25 26 27 28 29 30 31 32 33 34 35 36 37 38 39 40 41 42 43 44 45 46 47 48 49 50
577 ASUS41 KGYX 221705 RWRGYX WEATHER ROUNDUP FOR MAINE AND NEW HAMPSHIRE NATIONAL WEATHER SERVICE GRAY ME 100 PM EDT SAT SEP 22 2018 MEZ002-005-006-010-012-015-018-020-021-024-026-027-029-221800- MAINE CITY SKY/WX TMP DP RH WIND PRES REMARKS PORTLAND PTSUNNY 62 43 49 NW14 30.11R SANFORD FAIR 66 49 54 NW8 30.10R BAR HARBOR FAIR 61 40 45 NW8G21 30.04R WISCASSET FAIR 61 43 51 VRB7 30.09R ROCKLAND FAIR 61 42 49 W14 30.06R FRYEBURG FAIR 63 40 42 CALM 30.12R LEWISTONAUBURN FAIR 60 41 49 NW12 30.10S AUGUSTA LGT RAIN 61 38 42 NW15G21 30.09R WATERVILLE FAIR 60 37 42 N10G18 30.06R BANGOR PTSUNNY 62 35 36 NW20G31 30.05R GREENVILLE N/A 52 35 52 NW18G31 30.05R MILLINOCKET FAIR 59 37 44 W15G25 30.05R HOULTON FAIR 57 37 47 NW17G28 29.98S PRESQUE ISLE FAIR 56 32 40 W17G29 30.01S FRENCHVILLE FAIR 56 32 40 W20G32 30.00R CARIBOU FAIR 58 33 39 NW13G24 29.99S $$ NHZ002-005-008-009-011-012-014-221800- NEW HAMPSHIRE CITY SKY/WX TMP DP RH WIND PRES REMARKS ROCHESTER FAIR 65 47 52 NW18G32 30.09R NASHUA FAIR 66 47 50 N12G23 30.12R MANCHESTER PTSUNNY 68 44 42 NW15G29 30.10R CONCORD FAIR 65 46 50 NW16 30.13R LACONIA FAIR 61 43 51 NW10 30.13S PLYMOUTH FAIR 61 41 48 NW9G16 30.14S BERLIN FAIR 58 37 45 NW13 30.15R WHITEFIELD FAIR 58 41 53 NW10G16 30.16R JAFFREY FAIR 65 49 56 VRB6 30.14R KEENE FAIR N/A N/A N/A N13G18 30.15R LEBANON FAIR 63 41 44 NW12 30.16S MT WASHINGTON PTSUNNY 32 27 80 NW60 N/A WCI 13 $$ VTZ005-007-008-221800- VERMONT CITY SKY/WX TMP DP RH WIND PRES REMARKS ST JOHNSBURY N/A 57 37 47 MISG 30.16R MONTPELIER FAIR 56 41 57 NW10G20 30.22S BURLINGTON PTSUNNY 58 37 45 VRB7 30.23R $$ MAZ007-012-024-CTZ003-RIZ002-NYZ038-NYZ072-221800- SOUTHERN NEW ENGLAND AND NY CITY SKY/WX TMP DP RH WIND PRES REMARKS BOSTON PTSUNNY 70 48 45 NW10G20 30.09R WORCESTER FAIR 65 47 52 N15G22 30.12R NANTUCKET FAIR 75 53 46 N20G29 30.07R PROVIDENCE PTSUNNY 72 53 51 N13 30.09S HARTFORD PTSUNNY 68 51 54 N9 30.13R ALBANY PTSUNNY 64 45 49 NW8 30.19S NEW YORK CITY PTSUNNY 71 51 49 N13G20 30.12R $$ ANZ081-ANZ082-ANZ150-NHZ014-MEZ023>029-221800- COASTAL MARINE OBSERVATIONS STATION/POSITION TIME TEMP WIND PRES WAVE AIR SEA DIR/SP/G HT/PER (UTC) (F) (DEG/KT/KT) (MB) (FT/S) MOUNT DESERT ROC 1700 58 310/ 16/ 17 1017.1R MATINICUS ROCK 1600 61 330/ 24/ 27 1016.5R ISLE OF SHOALS 1600 64 330/ 20/ 21 1017.6R JEFFREYS LEDGE 1606 63 N/A 5/10 $$ .............KEY.............. WCI - WIND CHILL TC - TEMPERATURE IN CELSIUS VSB - VISIBILITY IN MILES HX - HEAT INDEX FAIR- INDICATES FEW OR NO CLOUDS BELOW 12,000 FT, WITH NO SIGNIFICANT WEATHER AND/OR OBSTRUCTIONS TO VISIBILITY.

USA.gov is the U.S. government's official web portal to all federal, state and local government web resources and services.